DELTA 4 R/B, 39742

Orbit data source: Space-Track

DELTA 4 R/B, 39742 is space debris in MEO originally from a launch on Sat, 17 May 2014 UTC launched from the Air Force Eastern Test Range (AFETR). Debris objects in space refer to the collection of defunct objects orbiting the Earth. Examples of debris include non-operational satellites, rocket bodies, and fragments generated from explosions, collisions, or faulty payload assembly.

Loading next visibility...
Identifier
39742, 2014-026B
Orbit
MEO
Country
Flag of USUS
Related business
Flag of USUnited Launch Alliance/Lockheed Martin (US)
Manufacturer
ULA Decatur
Mission
Spacecraft
Bus & Motor
DCSS-4, RL10B-2
Mass
2,850 kg wet, 2,850 kg dry
Launch date (UTC)
2014-05-17 (12 years ago)
Launch vehicle
Unknown
Launch site
Air Force Eastern Test Range (AFETR)
Object type
Payload
Rocket body
Debris
Shape & HBR
Cyl + 1 Nozzle, 6.3 m
Radar Cross Section
43.982 m², Large (>1 m²)

Expand to show TLE details & history
Last TLE update: 1 month ago

TLE from 1 month ago
0 DELTA 4 R/B
1 39742U 14026B   26216.79135510 -.00000079  00000-0  00000+0 0  9992
2 39742  56.6324 341.2346 0014140 131.7914 228.3453  1.93898857 84010
Epoch: 2026-08-04T18:59Z
TLE epoch observation values (Epoch: 2026-08-04T18:59:33.080Z)
Latitude
-0.00004°
Longitude
102.97939°
Altitude
20,813.356 km
Speed
3.827 km/s
True Right ascension
22h 44m 53s
True Declination
0° 00' 00"
Sunlit
Object was in daylight at epoch
Visualization orbit readout
Latitude
Unknown
Longitude
Unknown
Altitude
Unknown
Speed
Unknown
Apparent Right ascension
Unknown
Apparent Declination
Unknown
Sunlit
N/A
Visualization observer readout
Local Sidereal Time
14:35:56
Azimuth
Unknown
Elevation
Unknown
Doppler factor
Unknown
Orbital elements
Apogee altitude
20,825.757 km
Perigee altitude
20,748.933 km
Semi-major axis
27,165.482 km
Eccentricity
0.00141
Inclination
56.6324°
RAAN
341.2346°
Arg. of periapsis
131.7914°
True anomaly
228.22438°
Mean anomaly
228.3453°
Eccentric anomaly
228.28482°
Mean motion
0.48475 °/min
Orbital period
742.65 mins
BSTAR
0
Loading maneuver chart data...
Computing Atmospheric mass density...

Documentation

Showing up to 5 results
|